Location: Clay (historical)
(35.1476°N, 89.8179°W)
Time: 04:58:56
(UTC+00:00)

Cosmos 2233 Rocket - Visible Passes

Search period start: 14 May 2026 00:00
Search period end: 24 May 2026 00:00
Orbit: 951 x 991 km, 82.9° (Epoch: 13 May)

Date Brightness Start Highest point End Pass type
(mag) Time Alt. Az. Time Alt. Az. Time Alt. Az.
14 May 4.0 02:15:20 10° S 02:21:26 62° E 02:27:30 10° NNE visible
14 May 6.4 04:03:20 10° WSW 04:07:08 17° WNW 04:10:55 10° NNW visible
15 May 4.2 02:39:13 10° SSW 02:45:24 73° W 02:51:34 10° N visible
16 May 5.0 01:19:35 10° SE 01:24:32 26° E 01:29:26 10° NNE visible
16 May 5.2 03:03:46 10° SSW 03:09:30 39° WNW 03:15:14 10° N visible
17 May 4.2 01:42:24 10° SSE 01:48:17 48° E 01:54:10 10° NNE visible
17 May 6.2 03:29:12 10° WSW 03:33:46 21° WNW 03:38:22 10° NNW visible
18 May 4.0 02:06:00 10° S 02:12:12 88° E 02:18:23 10° N visible
18 May 6.8 03:56:44 10° W 03:58:14 11° WNW 03:59:45 10° NW visible
19 May 4.8 02:30:17 10° SSW 02:36:15 50° W 02:42:13 10° N visible
20 May 5.9 02:55:19 10° SW 03:00:28 27° WNW 03:05:36 10° NNW visible
21 May 4.0 01:32:55 10° S 01:39:02 69° E 01:45:09 10° NNE visible
21 May 6.6 03:21:35 10° WSW 03:24:51 15° WNW 03:28:05 10° NW visible
22 May 4.4 01:56:55 10° SSW 02:03:01 65° W 02:09:08 10° N visible
23 May 5.6 02:21:37 10° SW 02:27:10 35° WNW 02:32:43 10° NNW visible
